Simultaneous Nadir Overpasses (SNOs) Predictions

Prediction of SNOs between GOES-15 and METOP-A Satellite Orbit:

Table of predicted SNOs for the next 14.0 days since TLE Epoch: 12/2/2016
Index Date Time (GOES-15) GOES-15 Lat,Lon METOP-A Lat,Lon Distance(km) Time Diff (sec)
1 12/02/2016 06:19:46 0.18,-135.39 0.69,-133.02 269.51 80
2 12/03/2016 18:41:18 -0.17,-135.37 0.31,-137.58 250.99 80
3 12/04/2016 18:17:58 -0.17,-135.37 -0.82,-132.58 317.78 80
4 12/06/2016 06:39:38 0.16,-135.37 -0.25,-137.17 205.29 80
5 12/07/2016 06:16:18 0.16,-135.36 0.88,-132.17 362.74 80
6 12/08/2016 18:37:48 -0.15,-135.33 0.18,-136.72 159.25 80
7 12/09/2016 18:14:29 -0.16,-135.32 -0.95,-131.73 408.68 80
8 12/11/2016 06:36:08 0.14,-135.31 -0.10,-136.31 115.37 80
9 12/12/2016 06:12:49 0.15,-135.29 1.03,-131.32 451.77 80
10 12/13/2016 18:34:19 -0.14,-135.24 0.03,-135.87 72.02 80
11 12/14/2016 18:11:00 -0.14,-135.22 -1.10,-130.87 495.13 80




NCC Satellite Simultaneous Nadir Overpasses (SNOs) Prediction Service
